www.pogodaiklimat.ru

Погода и климат >> Архив погоды >> Таджикистан >> Душанбе


АРХИВ ПОГОДЫ в Душанбе

Время (UTC), дата Ветер
(напр.,м/с)
 
Видим.   Явления Облачность Т
(С)
Тd
(С)
f
(%)
Тe
(С)
Тes
(С)
Комфортность P
(гПа)
Po
(гПа)
Тmin
(С)
Tmax
(С)
R
(мм)
R24
(мм)
S
(см)
12 10.08 штиль 0 10 км мгла 4/0 2000 м
[Ci sp]
+33.2 +14.2 32 +35 +40 душно 995.6 915.0
15 10.08 штиль 0 10 км мгла 4/3 1000 м
[Sc Ac trans]
+28.5 +13.6 40 +30 +30 жарко 999.6 914.3 +35.2
18 10.08 штиль 0 н/о 4/0
[Ci ing]
+22.4 +14.0 59 +26 +26 жарко 1002.3 915.6 +35.2
21 10.08 штиль 0 н/о 4/0
[Ci ing]
+20.3 +14.4 69 +22 +22 комфорт 1004.2 916.1
00 11.08 штиль 0 1000 м мгла 4/0 2000 м
[Ci sp]
+18.1 +14.8 81 +18 +18 по сезону 1005.2 917.2
03 11.08 штиль 0 10 км мгла 4/0 1000 м
[Ac cast Ci sp]
+25.0 +13.2 48 +27 +32 жарко 1004.1 917.6 +17.2
06 11.08 штиль 0 10 км мгла 4/0 2000 м
[Ci fib]
+30.5 +12.8 34 +32 +52 опасность
солнечного
удара
1001.1 916.2 +17.2
09 11.08 штиль 0 10 км мгла 3/0 2000 м
[Ci fib]
+36.8 +11.5 22 +36 +57 опасность
солнечного
удара
998.6 915.1
12 11.08 штиль 0 10 км мгла 3/0 2000 м
[Ci fib]
+37.3 +10.9 20 +36 +41 очень
жарко
995.4 913.8
15 11.08 штиль 0 1000 м мгла 4/3 1000 м
[Sc Ac trans]
+27.7 +13.6 42 +30 +30 жарко 999.8 914.4 +38.4
18 11.08 штиль 0 н/о 3/0
[Ci fib]
+22.1 +14.1 60 +25 +25 комфорт 1002.6 915.4 +38.4
21 11.08 штиль 0 н/о 4/0
[Ci sp]
+20.7 +14.9 69 +23 +23 комфорт 1004.7 916.0
00 12.08 штиль 0 10 км мгла 5/0 2000 м
[Ac cast Ci sp]
+19.5 +13.3 67 +21 +21 комфорт 1005.8 916.0
03 12.08 штиль 0 10 км мгла 3/0 2000 м
[Ci fib]
+27.8 +14.0 43 +30 +36 жарко 1003.5 916.6 +18.1
06 12.08 штиль 0 10 км мгла 3/0 2000 м
[Ci fib]
+34.1 +10.6 24 +33 +54 опасность
солнечного
удара
1001.8 917.7 +18.1
09 12.08 штиль 0 10 км мгла 3/0 2000 м
[Ci fib]
+37.8 +11.0 20 +37 +57 опасность
солнечного
удара
1001.0 918.0
12 12.08 штиль 0 10 км мгла 3/0 2000 м
[Ci sp]
+34.5 +11.9 25 +34 +39 очень
жарко
1000.1 916.4
15 12.08 штиль 0 1000 м мгла 4/3 1000 м
[Sc Ci ing]
+28.7 +12.5 37 +30 +30 жарко 1002.4 916.9 +38.5
18 12.08 штиль 0 н/о 3/0
[Ci ing]
+24.6 +12.0 45 +26 +26 жарко 1007.5 917.7 +38.5
21 12.08 штиль 0 н/о 4/0
[Ci ing]
+21.9 +12.4 55 +24 +24 комфорт 1008.6 918.0
00 13.08 штиль 0 20 км 3/0
[Ci fib]
+19.2 +12.0 63 +20 +20 тепло 1009.4 918.6
03 13.08 штиль 0 50 км 3/0
[Ci ing]
+27.3 +16.0 50 +31 +36 душно 1004.9 919.4 +17.8
06 13.08 штиль 0 50 км ясно +32.5 +9.8 25 +32 +54 опасность
солнечного
удара
1003.9 919.2 +17.8
09 13.08 штиль 0 50 км ясно +34.7 +8.6 20 +33 +54 опасность
солнечного
удара
1001.6 917.6
12 13.08 штиль 0 50 км ясно +34.0 +9.7 23 +33 +38 жарко 1001.0 916.9
15 13.08 штиль 0 20 км ясно +26.5 +11.4 39 +28 +28 жарко 1004.9 918.5 +36.2
18 13.08 штиль 0 н/о ясно +22.0 +13.5 59 +25 +25 комфорт 1007.3 919.6 +36.2
21 13.08 штиль 0 н/о ясно +20.5 +11.0 54 +22 +22 комфорт 1008.4 920.4
00 14.08 штиль 0 20 км ясно +18.0 +12.4 70 +18 +18 по сезону 1009.9 920.8
03 14.08 штиль 0 10 км мгла 5/0
[As op Ci ing]
+25.6 +11.1 40 +27 +31 жарко 1008.6 921.6 +17.0
06 14.08 штиль 0 1000 м мгла 8/4
[Sc Ac cast]
+28.5 +6.1 24 +27 +34 жарко 1008.0 921.8 +17.0
09 14.08 ЮЗ 3 1000 м 8/4 2000 м
[Sc Ac trans Ci ing]
+29.3 +5.1 22 +28 +33 жарко 1006.2 920.4
12 14.08 штиль 0 1000 м мгла 8/4 1000 м
[Sc Ac trans Ci ing]
+29.7 +5.4 21 +28 +30 жарко 1007.0 919.4
15 14.08 З 4 1000 м мгла 8/6 1000 м
[Sc Ac trans]
+26.8 +9.2 33 +27 +27 жарко 1006.1 919.7 +31.1
18 14.08 штиль 0 н/о 8/5 1000 м
[Cb cap Ac trans]
+21.9 +8.9 43 +23 +23 комфорт 1007.8 920.4 +31.1
21 14.08 штиль 0 н/о 8/8 1000 м
[Cb cap]
+20.7 +8.4 45 +22 +22 комфорт 1008.7 921.8
00 15.08 штиль 0 1000 м мгла 8/3 1000 м
[Cb cap Ac trans]
+19.2 +8.0 48 +20 +20 тепло 1009.1 922.4
03 15.08 штиль 0 10 км мгла 8/0 2000 м
[Ac trans Ci ing]
+22.7 +10.7 47 +25 +29 комфорт 1009.8 923.6 +16.8
06 15.08 ЮВ 3 10 км мгла 6/0 1000 м
[Ac trans Ci ing]
+28.0 +8.0 28 +28 +38 жарко 1011.4 924.8 +16.8
09 15.08 ЮЗ 4 10 км мгла 5/0 2000 м
[Ac cast Ci ing]
+30.8 +6.4 22 +29 +37 жарко 1008.6 923.0
12 15.08 ЮЗ 4 10 км мгла 5/0 2000 м
[Ci fib]
+31.1 +6.7 22 +30 +32 жарко 1006.7 921.4
15 15.08 штиль 0 1000 м мгла 4/3 1000 м
[Cu med, cong Ci ing]
+22.1 +8.2 41 +23 +23 комфорт 1008.3 920.4 +32.4
18 15.08 штиль 0 н/о 3/3 1000 м
[Cu med, cong Ci ing]
+18.3 +9.0 55 +19 +19 прохладно 1010.1 921.1 +32.4
21 15.08 штиль 0 н/о 3/0
[Ci fib]
+15.0 +8.5 65 +15 +15 холодно 1011.7 920.8
00 16.08 штиль 0 20 км 4/0
[Ac trans Ci ing]
+19.8 +8.5 48 +21 +21 комфорт 1011.0 859.8
03 16.08 штиль 0 50 км 4/0
[Ci ing]
+21.7 +7.4 40 +23 +28 комфорт 1009.2 921.0 +12.4
06 16.08 З 4 50 км 3/0
[Ci fib]
+28.5 +6.7 25 +28 +38 жарко 1006.0 920.0 +12.4
09 16.08 ЮЗ 5 50 км 4/0
[Ac cast Ci ing]
+30.8 +6.4 22 +29 +36 жарко 1004.8 919.6
12 16.08 З 3 50 км 4/0 2000 м
[Ac cast Ci ing]
+30.3 +8.2 25 +29 +32 жарко 1003.5 918.4
15 16.08 штиль 0 10 км 4/3 1000 м
[Sc Ci ing]
+23.0 +11.8 49 +25 +25 комфорт 1006.5 919.1 +31.5
18 16.08 штиль 0 н/о 5/0
[Ci fib]
+16.8 +8.6 58 +17 +17 холодно 1008.1 920.0 +31.5
21 16.08 штиль 0 н/о 3/0
[Ci fib]
+21.1 +9.3 47 +15 +15 холодно 1010.9 921.2
00 17.08 штиль 0 20 км 4/0
[Ci sp]
+12.7 +7.0 68 +12 +12 холодно 1010.4 921.8
03 17.08 штиль 0 50 км 4/0
[Ci ing]
+22.0 +9.4 45 +24 +29 комфорт 1007.5 921.3 +12.2
06 17.08 штиль 0 50 км ясно +28.6 +7.6 27 +28 +49 жарко 1006.9 920.9 +12.2
09 17.08 штиль 0 50 км ясно +30.6 +6.4 22 +29 +50 жарко 1004.4 919.1

 

Местоположение метеостанции Душанбе (Таджикистан): широта 38.55 долгота 68.78 высота над уровнем моря 800 м.

В архиве по умолчанию представлена погода в Душанбе за последнюю неделю. Архивные данные за месяц целиком и за предыдущие месяцы, начиная с января 2011 года, Вы можете получить, выбрав интересующий диапазон дат из раскрывающегося списка и нажав кнопку "Ввод!".


*Определитесь, кто Вы:
робот инопланетянин человек

Внимание! Время в таблицах - всемирное. Для получения местного времени необходимо прибавить поправку, которая равна 5 ч.

Смотрите также архив погоды в соседних городах и на ближайших метеорологических станциях:

Погода в Санглоке (Таджикистан) (48 км)
Погода на Азнобском перевале (Таджикистан) (58 км)
Погода в Исанбай (Таджикистан) (66 км)
Погода в Дангаре (Таджикистан) (69 км)
Погода в Ганжине (Таджикистан) (69 км)
Погода в Искандекуле (Таджикистан) (70 км)
Погода в Курган-Тюбе (Таджикистан) (81 км)
Погода в Денау (Сухрандарьинская область, Узбекистан) (83 км)
Погода в Шурчи (Сухрандарьинская область, Узбекистан) (105 км)
Погода в Кулябе (Таджикистан) (112 км)

Пояснения к столбцам:

Ветер - указаны скорость ветра в м/с - средняя за 10 мин, порывы в срок и между сроками (в фигурных скобках) и направление, откуда дует ветер: С - северный, СВ - северо-восточный, В - восточный, ЮВ - юго-восточный, Ю - южный, ЮЗ - юго-западный, З - западный, СЗ - северо-западный.
Видимость - горизонтальная дальность видимости в метрах или километрах. При видимости от 1 до 10 км при отсутствии осадков обычно наблюдается дымка, при ухудшении видимости до 1 км и менее - туман. В сухую погоду видимость может ухудшаться дымом, пылью или мглою.
Явления - указаны атмосферные явления, наблюдавшиеся в срок или в последний час перед сроком; фигурными скобками обозначены явления, наблюдавшиеся между сроками (за 1-3 часа до срока); квадратными скобками обозначены град или гололедные отложения с указанием их диаметра в мм.
Облачность - указаны через наклонную черту общая и нижняя облачность в баллах и высота нижней границы облаков в метрах; квадратными скобками обозначены формы облаков: Ci - перистые, Cs - перисто-слоистые, Cc - перисто-кучевые, Ac - высококучевые, As - высокослоистые, Sc - слоисто-кучевые, Ns - слоисто-дождевые, Cu - кучевые, Cb - кучево-дождевые. Подробнее классификацию облаков см. в Атласе облаков (PDF).
T - Температура воздуха - температура, измеренная на высоте 2 м над землей.
Td - Температура точки росы - температура, при понижении до которой содержащийся в воздухе водяной пар достигнет насыщения.
f - Относительная влажность воздуха - влажноcть воздуха, измеренная на высоте 2 м над землей.
Te - Эффективная температура - температура, которую ощущает одетый по сезону человек в тени. Характеристика душности погоды. При расчете учитывается влияние влажности воздуха и скорости ветра на теплоощущения человека.
Tes - Эффективная температура на солнце - температура, которую ощущает человек, с поправкой на солнечный нагрев. Характеристика знойности погоды. Зависит от высоты солнца над горизонтом, облачности и скорости ветра. Ночью, в пасмурную погоду, а также при ветре 12 м/с и более поправка равна нулю.
P - Атмосферное давление - приведенное к уровню моря атмосферное давление.
Po - Атмосферное давление - измеренное на уровне метеостанции атмосферное давление.
Tmin - Минимальная температура - минимум температуры воздуха на высоте 2 м над землей.
Tmax - Максимальная температура - максимум температуры воздуха на высоте 2 м над землей.
R - Количество осадков - Количество выпавших осадков за период времени, мм. При наведении курсора мыши на число - период времени, за который выпало указанное количество осадков.
R24 - Количество осадков - Количество выпавших осадков за 24 часа, мм.
S - Снежный покров - Высота снежного покрова, см. При наведении курсора мыши на число - состояние снежного покрова и степень покрытия местности в баллах.